Hyannis, MA

11:49 AM EDT on August 20, 2017 (GMT -0400)
Barnstable Municipal-Boardman-Polando Field

Weather History for KHYA - March, 2013

Change the Weather History Date:

Saturday, March 30, 2013

  Actual Average Record
Temperature  
Mean Temperature 46 °F -  
Max Temperature 54 °F 49 °F 70 °F (1977)
Min Temperature 34 °F 34 °F 17 °F (1966)
Degree Days  
Heating Degree Days 19    
Moisture  
Dew Point 33 °F    
Average Humidity 63    
Maximum Humidity 89    
Minimum Humidity 38    
Precipitation  
Precipitation 0.00 in - - ()
Sea Level Pressure  
Sea Level Pressure 30.04 in    
Wind  
Wind Speed 5 mph (NW)    
Max Wind Speed 13 mph    
Max Gust Speed 21 mph    
Visibility 10 miles    
Events Rain    
Averages and records for this station are not official NWS values.
T = Trace of Precipitation, MM = Missing Value Source: NWS Daily Summary

Daily Weather History Graph

Daily Weather History Graph

Search for Another Location

Airport or City:

Trip Planner

Search our weather history database for the weather conditions in past years. The results will help you decide how hot, cold, wet, or windy it might be!

Date:

Astronomy

Mar. 30, 2013 Rise Set
Actual Time 6:27 AM EDT 7:04 PM EDT
Civil Twilight 5:59 AM EDT 7:32 PM EDT
Nautical Twilight 5:26 AM EDT 8:05 PM EDT
Astronomical Twilight 4:52 AM EDT 8:39 PM EDT
Moon 11:11 PM EDT (3/30) 8:16 AM EDT (3/30)
Length of Visible Light 13h 33m
Length of Day
12h 37m
Waning Gibbous, 86% of the Moon is Illuminated
Mar 30
Waning Gibbous
Apr 3
Last Quarter
Apr 10
New
Apr 18
First Quarter
Apr 25
Full

Hourly Weather History & Observations

Time (EDT) Temp. Windchill Dew Point Humidity Pressure Visibility Wind Dir Wind Speed Gust Speed Precip Events Conditions
12:56 AM 42.1 °F 39.2 °F 36.0 °F 79% 30.02 in 10.0 mi NNW 4.6 mph - N/A   Partly Cloudy
1:56 AM 43.0 °F - 37.0 °F 80% 30.02 in 10.0 mi Calm Calm - N/A   Overcast
2:56 AM 44.1 °F 42.5 °F 36.0 °F 73% 30.02 in 10.0 mi North 3.5 mph - 0.00 in Rain Light Rain
3:56 AM 44.1 °F 40.1 °F 35.1 °F 71% 30.01 in 10.0 mi NNW 6.9 mph - 0.00 in   Overcast
4:56 AM 43.0 °F 40.3 °F 33.1 °F 68% 30.01 in 10.0 mi NNW 4.6 mph - N/A   Overcast
5:56 AM 43.0 °F 39.5 °F 33.1 °F 68% 30.02 in 10.0 mi NNW 5.8 mph - N/A   Overcast
6:56 AM 43.0 °F 40.3 °F 33.1 °F 68% 30.03 in 10.0 mi NNW 4.6 mph - N/A   Overcast
7:56 AM 44.1 °F 40.8 °F 34.0 °F 68% 30.05 in 10.0 mi NW 5.8 mph - N/A   Overcast
8:56 AM 46.0 °F 40.6 °F 32.0 °F 58% 30.05 in 10.0 mi North 11.5 mph 17.3 mph N/A   Clear
9:56 AM 46.9 °F - 30.9 °F 54% 30.05 in 10.0 mi NNW 10.4 mph 20.7 mph N/A   Clear
10:56 AM 48.9 °F - 32.0 °F 52% 30.06 in 10.0 mi North 12.7 mph - N/A   Clear
11:56 AM 48.9 °F - 32.0 °F 52% 30.05 in 10.0 mi NNW 5.8 mph - N/A   Clear
12:56 PM 51.1 °F - 32.0 °F 48% 30.04 in 10.0 mi NNW 6.9 mph - N/A   Clear
1:56 PM 53.1 °F - 28.9 °F 40% 30.03 in 10.0 mi North 9.2 mph - N/A   Partly Cloudy
2:56 PM 52.0 °F - 27.0 °F 38% 30.03 in 10.0 mi Calm Calm - N/A   Scattered Clouds
3:56 PM 51.1 °F - 32.0 °F 48% 30.03 in 10.0 mi SW 8.1 mph - N/A   Clear
4:56 PM 51.1 °F - 30.9 °F 46% 30.03 in 10.0 mi SW 10.4 mph - N/A   Clear
5:56 PM 50.0 °F - 28.9 °F 44% 30.04 in 10.0 mi SW 9.2 mph - N/A   Clear
6:56 PM 46.0 °F 43.1 °F 33.1 °F 61% 30.05 in 10.0 mi SSW 5.8 mph - N/A   Clear
7:56 PM 44.1 °F 40.8 °F 36.0 °F 73% 30.06 in 10.0 mi South 5.8 mph - N/A   Clear
8:56 PM 43.0 °F 39.5 °F 37.0 °F 80% 30.08 in 10.0 mi SSW 5.8 mph - N/A   Clear
9:56 PM 42.1 °F 39.2 °F 36.0 °F 79% 30.09 in 10.0 mi SSW 4.6 mph - N/A   Clear
10:56 PM 39.0 °F - 35.1 °F 86% 30.09 in 10.0 mi Calm Calm - N/A   Clear
11:56 PM 34.0 °F - 30.9 °F 89% 30.09 in 10.0 mi Calm Calm - N/A   Clear